Wind_Speed
5 7 5 5 5 5 5 7 7 7 9 9 10 12 13 14 16 18 19 21 23 26 29 31 33 35 38 39 40 40 41 41 43 45 46 49 52 44 47 48 49 46 48 50 55
5 6 5 2 4 4 5 6 8 11 11 14 16 17 16 16 18 19 20 22 24 28 32 35 37 40 43 45 45 45 46 45 52 56 53 47 55 47 51 49 49 51 51 54 55
6 6 6 6 8 10 11 12 15 16 17 18 18 19 19 19 22 25 26 28 30 32 34 37 40 43 46 47 50 49 49 54 57 54 56 52 56 53 56 56 51 51 54 58 56
8 9 9 9 10 12 14 15 17 18 18 19 20 21 22 24 24 26 27 28 28 30 33 36 38 41 43 47 51 48 52 54 53 59 56 55 57 57 58 58 59 58 56 55 54
10 10 10 10 12 13 13 13 15 17 20 19 20 21 22 22 24 24 25 26 28 29 31 32 34 37 39 42 45 46 46 52 51 55 58 59 58 57 58 60 62 61 61 59 55
10 11 11 12 12 12 13 14 16 18 18 19 20 20 23 24 25 26 27 27 28 28 29 31 31 31 33 35 36 39 37 41 43 47 51 54 55 56 54 58 61 63 66 64 60
11 12 12 14 13 13 14 15 16 17 20 20 22 24 24 26 26 28 27 27 27 28 29 28 28 29 32 34 35 34 34 35 36 43 43 48 51 50 52 56 59 60 63 66 65
14 14 13 15 14 16 15 17 17 19 22 23 23 25 24 26 26 27 27 27 27 29 30 30 30 31 31 32 34 35 38 38 36 47 47 48 49 45 50 57 53 55 59 62 63
15 15 16 17 18 17 18 21 20 23 24 26 25 27 26 26 25 27 28 30 32 33 31 31 31 33 34 36 36 38 35 34 33 40 45 51 51 45 49 54 49 51 53 58 61
16 15 17 16 18 19 21 21 22 26 27 27 26 25 27 27 25 27 28 30 33 36 37 38 36 35 38 39 36 34 40 43 48 47 45 41 53 47 44 47 45 44 49 53 56
17 18 18 18 21 21 24 23 25 24 29 29 27 25 24 25 23 26 27 29 31 36 38 38 36 38 38 41 45 45 46 47 46 39 36 38 43 42 35 35 32 26 29 38 47
17 18 18 20 22 24 26 28 30 30 28 27 24 23 24 24 26 27 28 30 33 35 36 36 38 40 42 43 44 43 45 43 34 29 30 35 34 25 28 30 31 31 30 28 33
17 17 18 21 23 26 28 29 30 32 29 28 26 25 25 23 25 28 29 31 33 35 36 36 36 35 38 41 44 41 33 30 30 30 31 24 18 18 18 27 30 26 25 26 28
17 17 20 22 25 27 29 30 31 33 30 25 26 25 24 25 25 27 30 31 33 35 36 35 39 40 41 40 39 36 25 26 27 24 22 16 23 22 19 23 23 24 24 24 25
17 18 20 23 25 29 30 31 31 31 33 31 30 30 27 25 28 31 31 32 33 35 37 34 34 36 38 37 37 31 27 24 21 21 22 17 23 14 17 22 17 27 27 28 31
18 19 21 23 26 30 30 31 31 31 27 33 31 30 28 30 32 33 32 35 35 35 38 38 37 36 37 33 37 27 25 21 20 22 23 17 17 16 16 24 16 29 25 25 27
21 23 23 25 26 29 29 30 31 30 31 34 33 33 30 31 33 32 32 34 36 36 38 39 38 35 37 35 36 35 27 24 19 11 19 18 23 20 25 25 25 27 27 27 29
24 24 24 25 27 29 30 31 30 31 31 33 33 31 30 29 32 30 33 34 37 38 38 40 39 37 37 35 35 34 28 26 24 15 21 30 23 22 23 26 30 26 28 27 30
25 25 26 26 27 29 30 33 32 35 35 35 34 33 33 35 35 36 35 36 35 36 37 38 38 35 35 35 36 34 26 24 28 25 28 25 21 17 23 29 33 26 26 27 29
25 23 23 26 28 29 31 31 34 34 36 36 36 32 30 32 33 36 35 39 36 37 37 38 38 35 35 33 35 30 25 21 20 25 24 12 18 16 18 17 8 29 32 28 27
25 25 26 28 29 30 31 34 35 35 36 36 33 32 31 35 33 36 36 38 37 38 39 40 38 36 35 33 37 30 25 24 24 24 26 24 15 16 17 21 31 35 38 31 28
29 29 29 30 29 30 33 35 35 36 36 35 33 33 33 35 36 34 35 39 38 41 38 42 38 38 36 32 34 27 25 23 28 24 26 28 27 27 32 38 38 31 33 32 36
28 27 28 27 29 32 34 34 35 38 38 38 37 38 36 37 40 36 36 41 41 37 38 43 41 41 37 32 32 29 27 28 26 28 30 32 32 30 31 35 36 40 36 36 36
28 29 27 26 29 32 34 34 37 38 38 39 38 39 39 38 40 41 43 42 43 39 40 43 40 41 40 31 32 33 29 30 31 36 32 34 34 31 27 36 40 41 42 39 32
26 27 30 31 33 33 34 37 39 41 42 42 40 40 39 39 41 42 43 42 43 43 45 45 44 42 39 33 33 30 25 24 30 34 39 38 40 30 29 36 38 39 35 32 29
29 30 31 32 33 34 36 39 41 41 40 39 42 40 40 41 43 43 45 45 45 45 46 46 44 43 37 32 33 31 23 23 26 29 36 39 39 28 36 39 36 34 33 34 30
30 33 35 35 37 39 40 42 43 45 42 39 41 41 41 43 43 45 46 47 47 46 45 46 44 39 32 32 31 29 21 19 26 29 33 36 34 32 34 37 38 38 37 35 33
Wind_Direction
29 21 39 106 87 83 76 45 32 17 358 349 338 326 317 310 302 291 284 280 275 273 271 269 268 265 262 261 260 259 259 258 256 256 252 253 257 252 249 251 251 247 246 247 251
18 3 359 272 280 311 326 328 333 333 329 322 315 313 305 302 297 296 289 286 282 280 275 271 268 267 265 264 263 261 260 258 255 253 256 254 261 258 256 250 249 249 245 247 248
354 342 329 303 293 293 294 303 306 313 314 312 310 307 302 300 297 293 289 287 285 281 277 275 273 272 269 265 264 263 261 258 258 258 256 253 253 255 254 254 250 248 247 245 247
336 329 321 308 294 293 294 301 304 306 311 313 312 312 309 306 306 303 300 298 294 289 283 280 277 275 273 271 268 267 265 262 264 263 259 257 254 253 254 255 253 250 247 250 248
345 339 331 318 309 307 309 312 315 315 319 323 322 319 320 320 320 318 314 310 307 304 301 298 292 286 283 281 276 269 267 268 264 264 264 260 256 254 252 254 254 254 251 245 245
345 340 338 336 333 328 323 325 325 329 332 329 333 336 337 333 330 327 325 324 321 318 315 310 302 293 289 287 286 283 277 274 271 267 265 263 261 258 254 252 253 254 252 250 244
344 343 341 341 337 334 331 331 336 338 337 339 343 342 340 337 335 336 333 331 331 329 324 317 307 296 290 287 285 284 284 281 276 269 266 267 264 261 257 252 252 253 255 254 249
340 340 339 344 338 334 335 338 339 340 342 341 339 340 337 337 339 337 335 334 335 334 331 323 315 306 300 295 292 290 286 285 288 281 275 267 264 271 268 259 255 257 257 257 254
335 336 337 340 342 341 340 341 339 341 341 338 336 336 340 340 337 345 342 343 342 340 338 336 321 308 304 300 298 302 298 292 276 281 284 281 276 271 267 266 260 257 254 254 255
334 336 341 347 347 347 345 342 339 336 338 335 333 335 336 343 345 344 345 345 344 342 339 339 336 321 314 313 310 298 293 284 286 283 276 276 276 268 260 259 259 252 252 254 254
333 339 341 343 345 347 346 344 340 337 334 335 335 336 338 337 341 341 346 347 344 345 346 340 328 315 309 305 300 297 294 291 288 283 281 278 276 264 249 252 260 243 238 245 251
337 344 343 338 339 345 346 346 344 340 338 335 332 330 329 333 336 339 341 342 345 341 341 336 330 321 315 313 306 300 294 291 292 287 276 274 274 251 250 256 254 249 247 248 241
334 342 343 339 338 342 342 343 343 341 337 333 326 325 325 328 329 329 335 337 340 339 338 335 328 318 314 319 307 301 291 288 282 274 267 282 267 267 274 255 257 258 254 246 241
330 331 334 332 334 336 341 342 342 340 336 333 327 324 324 321 318 323 331 335 340 338 339 335 330 326 321 318 314 313 295 279 278 277 281 263 268 245 238 266 261 254 256 243 239
322 330 333 334 332 337 339 341 342 339 334 334 330 327 323 322 318 320 328 333 337 336 337 335 327 323 325 321 320 314 304 299 288 286 289 274 274 272 275 290 266 258 260 257 256
319 325 331 332 332 337 340 343 340 337 337 334 327 320 321 323 325 325 327 329 332 333 334 338 333 325 328 327 324 312 306 294 286 288 279 296 284 276 249 249 229 271 267 261 255
317 320 324 328 332 334 339 340 337 338 335 331 328 322 316 318 322 323 322 326 330 333 333 335 333 325 323 327 326 323 301 298 297 280 292 259 252 259 264 257 248 272 275 270 260
314 316 320 324 329 333 336 339 337 335 329 327 325 320 310 310 316 317 316 324 329 332 333 334 334 327 321 324 325 317 300 290 284 266 261 281 279 277 278 261 272 277 271 269 265
312 311 318 321 324 330 332 333 334 330 326 325 325 322 313 313 318 319 319 321 327 327 328 330 332 326 316 318 322 318 314 287 288 289 285 287 281 290 265 293 287 280 276 263 261
320 320 319 321 322 325 329 330 327 327 326 324 324 323 318 315 318 318 319 317 324 324 326 326 330 326 319 316 321 311 305 291 287 285 287 279 294 285 272 233 259 288 287 269 264
314 314 319 320 323 325 326 326 325 326 325 324 323 321 319 316 321 320 320 319 323 322 323 323 326 326 319 317 320 308 295 286 280 276 280 279 265 266 259 236 260 275 283 269 258
315 317 319 319 319 321 323 324 325 325 325 323 319 317 318 318 319 321 319 318 323 321 318 320 322 321 317 315 315 305 289 278 276 277 272 277 272 266 275 283 279 282 268 270 264
306 311 317 317 320 322 322 322 323 324 325 324 319 317 318 321 318 321 320 319 321 315 314 317 321 315 314 316 313 297 282 270 270 268 267 273 284 282 270 280 285 278 276 265 267
299 305 307 313 318 320 322 323 323 323 322 320 317 314 315 319 318 321 320 319 319 319 312 312 315 310 307 309 304 297 283 267 264 269 280 276 293 293 270 250 252 261 254 263 264
291 297 300 309 314 315 319 320 321 322 323 320 317 314 315 318 316 318 317 319 317 315 313 310 309 304 302 306 303 300 290 270 266 274 280 289 285 293 264 254 250 252 268 265 260
288 291 294 299 306 311 315 318 319 320 319 317 315 313 314 315 316 318 317 318 317 312 309 307 303 298 303 305 303 300 291 272 274 283 283 286 288 276 259 258 260 262 267 268 269
288 287 293 298 303 309 313 316 316 316 316 314 313 311 313 314 317 317 317 317 315 312 307 301 300 301 310 304 304 305 294 284 284 289 290 289 288 278 260 261 263 269 269 270 274
Height
5853 5852 5851 5851 5850 5849 5848 5847 5847 5846 5846 5845 5843 5842 5841 5840 5840 5838 5838 5838 5836 5835 5834 5833 5833 5833 5832 5833 5833 5833 5833 5833 5833 5832 5833 5829 5826 5834 5834 5837 5837 5841 5843 5843 5839
5853 5852 5851 5851 5850 5849 5848 5846 5845 5844 5843 5842 5841 5839 5838 5837 5835 5834 5833 5831 5830 5828 5827 5825 5825 5824 5823 5822 5822 5823 5822 5823 5816 5816 5821 5826 5817 5824 5821 5827 5829 5829 5833 5832 5832
5853 5852 5851 5850 5849 5848 5847 5845 5844 5843 5841 5839 5837 5836 5834 5833 5832 5830 5828 5826 5824 5821 5819 5817 5815 5814 5812 5812 5810 5812 5812 5807 5806 5809 5808 5813 5811 5812 5810 5812 5820 5819 5820 5821 5826
5853 5851 5850 5849 5847 5846 5845 5843 5842 5840 5838 5836 5834 5832 5829 5827 5827 5823 5821 5818 5816 5814 5812 5809 5807 5804 5803 5800 5799 5799 5796 5796 5794 5790 5795 5797 5799 5800 5800 5801 5802 5805 5812 5813 5816
5853 5851 5849 5847 5845 5844 5842 5841 5839 5837 5835 5832 5830 5828 5826 5823 5820 5817 5814 5811 5808 5805 5802 5800 5797 5794 5791 5789 5787 5785 5784 5782 5783 5779 5778 5779 5785 5787 5791 5788 5788 5792 5795 5800 5804
5852 5850 5848 5846 5844 5842 5840 5838 5836 5834 5831 5829 5826 5824 5821 5819 5815 5812 5810 5806 5802 5798 5795 5792 5789 5786 5783 5780 5778 5774 5774 5771 5769 5768 5765 5764 5767 5771 5779 5776 5775 5776 5780 5785 5793
5851 5849 5847 5845 5843 5840 5838 5836 5834 5831 5828 5825 5823 5820 5817 5815 5811 5807 5804 5801 5797 5793 5789 5785 5782 5779 5776 5773 5770 5768 5765 5762 5761 5757 5757 5753 5755 5758 5759 5761 5763 5764 5766 5769 5776
5849 5847 5845 5843 5841 5839 5836 5834 5831 5829 5826 5822 5820 5818 5814 5811 5807 5803 5799 5796 5793 5789 5785 5780 5776 5772 5770 5767 5763 5760 5757 5754 5750 5744 5746 5744 5746 5747 5743 5745 5753 5753 5754 5754 5759
5848 5846 5844 5841 5839 5836 5834 5831 5828 5825 5822 5819 5817 5813 5810 5807 5803 5800 5796 5791 5786 5782 5779 5775 5770 5766 5763 5758 5756 5752 5748 5746 5744 5739 5730 5730 5732 5738 5732 5731 5740 5741 5741 5741 5742
5846 5843 5841 5839 5836 5833 5831 5828 5825 5822 5819 5816 5812 5811 5807 5802 5799 5796 5791 5787 5781 5777 5772 5767 5762 5758 5753 5749 5747 5745 5741 5736 5729 5729 5721 5717 5718 5723 5721 5718 5723 5729 5729 5729 5729
5844 5841 5839 5836 5833 5831 5828 5825 5824 5820 5815 5812 5808 5805 5801 5798 5796 5791 5786 5782 5778 5772 5766 5760 5757 5752 5748 5744 5738 5732 5726 5720 5717 5714 5711 5708 5704 5708 5709 5710 5713 5716 5719 5721 5722
5841 5839 5836 5834 5831 5827 5824 5821 5817 5815 5811 5808 5804 5801 5798 5794 5789 5785 5781 5778 5772 5767 5762 5756 5749 5744 5738 5732 5725 5719 5712 5708 5707 5709 5703 5699 5694 5697 5702 5703 5704 5707 5711 5715 5717
5838 5836 5834 5831 5828 5824 5821 5818 5814 5810 5809 5805 5801 5798 5794 5790 5785 5780 5777 5772 5767 5762 5757 5751 5746 5740 5732 5725 5715 5709 5704 5703 5700 5698 5694 5690 5691 5696 5699 5696 5697 5700 5705 5708 5711
5835 5833 5830 5828 5826 5821 5817 5814 5810 5806 5803 5802 5798 5794 5790 5785 5782 5777 5771 5768 5761 5757 5751 5744 5736 5728 5722 5716 5707 5701 5696 5693 5691 5688 5687 5691 5685 5688 5690 5692 5691 5694 5698 5701 5703
5832 5829 5827 5824 5821 5818 5814 5810 5805 5801 5799 5795 5791 5787 5784 5782 5776 5770 5766 5761 5756 5750 5745 5739 5732 5725 5717 5708 5701 5695 5690 5686 5683 5682 5681 5683 5683 5686 5690 5688 5687 5688 5690 5693 5695
5828 5826 5823 5820 5817 5814 5809 5805 5801 5799 5793 5789 5785 5781 5777 5772 5769 5763 5758 5754 5749 5744 5738 5732 5724 5717 5711 5704 5695 5690 5684 5681 5679 5679 5677 5679 5682 5685 5683 5676 5679 5681 5682 5684 5685
5824 5821 5819 5816 5813 5809 5805 5801 5798 5793 5789 5784 5779 5773 5771 5767 5763 5758 5752 5748 5742 5736 5730 5725 5717 5711 5704 5698 5690 5684 5681 5677 5677 5680 5677 5674 5674 5677 5671 5667 5673 5676 5674 5675 5677
5820 5817 5814 5811 5808 5804 5800 5797 5793 5788 5783 5778 5774 5769 5764 5762 5757 5753 5747 5742 5735 5729 5722 5716 5712 5703 5696 5692 5687 5680 5677 5674 5670 5675 5671 5667 5666 5671 5665 5668 5668 5668 5668 5668 5667
5814 5811 5808 5805 5802 5799 5796 5791 5788 5783 5778 5773 5769 5763 5758 5753 5750 5745 5739 5734 5729 5723 5717 5710 5706 5698 5692 5686 5682 5675 5671 5668 5664 5665 5662 5662 5663 5661 5658 5658 5657 5659 5660 5659 5659
5809 5806 5803 5800 5797 5793 5790 5786 5781 5777 5772 5767 5762 5759 5754 5749 5746 5739 5734 5726 5721 5715 5709 5704 5698 5692 5685 5680 5675 5669 5666 5663 5661 5658 5656 5660 5655 5652 5652 5650 5650 5648 5651 5650 5650
5805 5802 5798 5795 5792 5788 5784 5779 5774 5770 5766 5762 5757 5752 5748 5742 5738 5732 5725 5719 5713 5707 5700 5694 5690 5687 5678 5672 5667 5662 5659 5657 5655 5654 5650 5650 5655 5651 5646 5647 5644 5644 5643 5642 5641
5798 5795 5793 5789 5787 5782 5778 5774 5770 5764 5760 5755 5751 5746 5741 5736 5730 5725 5718 5710 5705 5699 5693 5686 5681 5676 5671 5667 5660 5655 5652 5650 5646 5648 5644 5642 5642 5644 5640 5638 5637 5638 5634 5632 5631
5794 5791 5787 5784 5780 5775 5772 5768 5764 5759 5754 5748 5743 5737 5732 5728 5721 5717 5710 5702 5697 5690 5684 5678 5672 5664 5662 5656 5653 5648 5645 5643 5640 5637 5635 5633 5633 5632 5633 5632 5629 5624 5624 5623 5623
5789 5785 5782 5779 5774 5769 5766 5761 5756 5753 5748 5742 5736 5730 5725 5720 5713 5708 5701 5695 5686 5682 5674 5666 5664 5656 5651 5649 5643 5638 5636 5634 5631 5626 5626 5623 5620 5621 5619 5614 5613 5613 5611 5613 5615
5782 5780 5775 5772 5767 5764 5760 5755 5750 5745 5740 5734 5729 5722 5718 5712 5705 5699 5692 5686 5678 5671 5664 5656 5652 5646 5641 5638 5631 5628 5626 5624 5621 5619 5614 5613 5609 5610 5605 5599 5598 5599 5602 5603 5605
5773 5771 5770 5766 5761 5757 5753 5748 5743 5738 5732 5726 5719 5713 5708 5703 5697 5690 5683 5676 5670 5662 5652 5646 5642 5634 5632 5628 5623 5618 5617 5615 5613 5611 5606 5601 5597 5597 5590 5589 5590 5591 5591 5592 5594
5765 5763 5760 5758 5753 5749 5744 5739 5734 5729 5724 5717 5711 5705 5700 5693 5687 5681 5673 5666 5658 5651 5644 5635 5629 5624 5624 5619 5615 5612 5608 5607 5605 5601 5595 5589 5587 5583 5582 5580 5580 5579 5580 5580 5582